ASTRA 1G
1 25071U 97076A   03013.00000000  .00000139  00000-0  10000-3 0  3879
2 25071   0.0122 319.8851 0002995  65.1991 106.1633  1.00273184 18772
INMARSAT 3-F5
1 25153U 98006B   03015.13392362  .00000161  00000-0  10000-3 0  8325
2 25153   0.4468 357.8654 0003784 313.2227 236.2746  1.00276015 18157
HOT BIRD 4
1 25237U 98013A   03013.80550721  .00000107  00000-0  10000-3 0  3250
2 25237   0.0242 116.4838 0007929 193.6371 105.7449  1.00276095 18185
NOAA 15
1 25338U 98030A   03014.96357806  .00000222  00000-0  11458-3 0  9698
2 25338  98.5512  38.0512 0011343  60.3629 299.8679 14.24227266242879
RESURS O1-N4
1 25394U 98043A   03015.55453539  .00000204  00000-0  10809-3 0  4245
2 25394  98.6364  94.1013 0001188 172.5340 187.5858 14.23864127234693
TMSAT
1 25396U 98043C   03014.25082534 -.00000043  00000-0  00000+0 0  8138
2 25396  98.6332  92.0441 0002414 203.9362 156.1711 14.23497681234505
TECHSAT 1B
1 25397U 98043D   03013.97768394 +.00000084 +00000-0 +56454-4 0 01082
2 25397 098.6279 090.6984 0000477 222.8680 137.2463 14.22950412234433
ASTRA 2A
1 25462U 98050A   03013.00000000  .00000169  00000-0  00000+0 0  5281
2 25462   0.0385 308.7109 0004824 280.8620 270.7162  1.00272094 16073
EUTELSAT W2
1 25491U 98056A   03014.86602446  .00000124  00000-0  00000+0 0  5636
2 25491   0.0549 108.2698 0003751 185.3971 148.0128  1.00274950 15700
HOT BIRD 5
1 25495U 98057A   03015.13542825  .00000175  00000-0  00000+0 0  4923
2 25495   0.0349 198.9702 0009463  93.1649 263.9846  1.00277875 15677
SEDSAT 1
1 25509U 98061B   03015.24212428  .00001718  00000-0  33535-3 0  7570
2 25509  31.4340 347.0096 0357876   3.1261 357.1502 14.27372412220400
PAN SAT
1 25520U 98064B   03014.35368983  .00003960  00000-0  20399-3 0  6298
2 25520  28.4586  98.3779 0005347 329.9011  30.1302 15.13692147232247
ISS (ZARYA)
1 25544U 98067A   03015.50469506  .00030217  00000-0  38361-3 0  5852
2 25544  51.6359  67.2150 0005600  36.2344 103.4087 15.59136754237185
ORSTED
1 25635U 99008B   03015.52410898  .00000907  00000-0  23636-3 0  8070
2 25635  96.4478   9.9149 0146968  77.0926 284.6642 14.44771016205024
SUNSAT
1 25636U 99008C   03014.21284942  .00000376  00000-0  10563-3 0  6562
2 25636  96.4497   7.6478 0150651  87.2748 274.5683 14.42917197204713
UOSAT 12
1 25693U 99021A   03015.54598525  .00000717  00000-0  12261-3 0  6131
2 25693  64.5597 114.9178 0017191 317.2481  42.7283 14.76348308201237
FENGYUN 1C
1 25730U 99025A   03014.57016508 -.00000028  00000-0  76713-5 0  7428
2 25730  98.6367  40.2830 0015348 101.6966 258.5929 14.11729198189691
ASTRA 1H
1 25785U 99033A   03013.00000000  .00000139  00000-0  10000-3 0  3685
2 25785   0.0122 319.8851 0002995  65.1991 106.1621  1.00273184 13136
TERRA
1 25994U 99068A   03015.32132502  .00000947  00000-0  22034-3 0  6045
2 25994  98.2039  92.0634 0001105  68.3645 291.7670 14.57091111163681
JAWSAT
1 26061U 00004A   03015.55043234  .00000685  00000-0  24542-3 0  7418
2 26061 100.2116  66.2968 0035364  16.2859 343.9451 14.37781734155642
OPAL
1 26063U 00004C   03015.19259967  .00000204  00000-0  90708-4 0  6988
2 26063 100.2173  63.5271 0037470  23.6329 336.6561 14.35465494155458
ASUSAT
1 26065U 00004E   03015.56832035  .00000235  00000-0  10134-3 0  7095
2 26065 100.2166  64.1124 0037630  24.3016 335.9928 14.35491875155502
GOES 11
1 26352U 00022A   03013.42743074 -.00000021  00000-0  10000-3 0  9741
2 26352   0.0572 112.4066 0004457 165.3898 236.2428  1.00261512  9873
EUTELSAT W4
1 26369U 00028A   03013.79642362  .00000175  00000-0  00000+0 0  3370
2 26369   0.0445  33.8375 0004435 200.8022 201.0567  1.00275710  9698
FENGYUN 2B
1 26382U 00032A   03014.23202736 -.00000308  00000-0  00000+0 0  7684
2 26382   0.6518 287.2693 0000511 162.2292 211.7565  1.00265856  9358
EUTELSAT W1
1 26487U 00052A   03013.00216436  .00000087  00000-0  10000-3 0  3413
2 26487   0.0486 102.7976 0003860 182.0647 197.9575  1.00274920  8651
ASTRA 2B
1 26494U 00054A   03013.00000000  .00000169  00000-0  00000+0 0  2517
2 26494   0.0178 354.5658 0005000 302.8402 202.8287  1.00276704  8557
NOAA 16
1 26536U 00055A   03014.64486374  .00000192  00000-0  12949-3 0  1646
2 26536  98.8965 323.1949 0011380  46.6983 313.5116 14.11881831119220
SAUDISAT 1A
1 26545U 00057A   03015.33012070  .00002480  00000-0  34681-3 0  3981
2 26545  64.5580 137.1484 0054271 243.9918 115.5587 14.78880508124159
UNISAT
1 26547U 00057C   03015.33353857  .00004191  00000-0  55922-3 0  4178
2 26547  64.5566 139.5000 0061343 246.6410 112.8225 14.79581678124123
TIUNGSAT 1
1 26548U 00057D   03013.85231292  .00003227  00000-0  42457-3 0  4013
2 26548  64.5561 134.9724 0047577 243.4905 116.1347 14.81132695124078
SAUDISAT 1B
1 26549U 00057E   03014.86793813  .00002243  00000-0  32217-3 0  6661
2 26549  64.5488 142.5009 0058686 244.4957 115.0073 14.77816682124017
AMSAT OSCAR 40
1 26609U 00072B   03014.42373129  .00000025  00000-0  10000-3 0  3042
2 26609   7.9543  70.5875 7935115 133.0894 327.3710  1.25596681 10146
GOES 12
1 26871U 01031A   03014.45037608 -.00000069  00000-0  10000-3 0  7707
2 26871   0.4651  97.7686 0000765  42.5770  30.0226  1.00278546  5481
STARSHINE 3
1 26929U 01043A   03015.54197848  .01170085  95458-3  91583-3 0  6779
2 26929  67.0207  77.5304 0007439 329.7092  30.3659 16.14630918 73424
PCSAT
1 26931U 01043C   03015.23271927  .00000317  00000-0  15736-3 0  3777
2 26931  67.0482 344.0080 0005327 258.4296 101.6207 14.29094076 67442
SAPPHIRE
1 26932U 01043D   03015.56499786  .00000204  00000-0  11261-3 0  3728
2 26932  67.0542 342.8653 0006226 239.1697 120.8793 14.29279184 67518
ENVISAT
1 27386U 02009A   03015.45324303  .00000002  00000-0  17039-4 0  8467
2 27386  98.5500  84.4966 0000902  95.9838 264.1436 14.32252519 45868
IDEFIX/ARIANE 42P
1 27422U 02021B   03015.54848725  .00000315  00000-0  14481-3 0  2098
2 27422  98.6999  94.8997 0011819 247.1933 112.8000 14.27949600 36603
NOAA 17
1 27453U 02032A   03014.90785393  .00000310  00000-0  15636-3 0  2687
2 27453  98.7618  86.2914 0012651  96.8758 263.3860 14.23270430 29038
HOT BIRD 6
1 27499U 02038A   03013.80550721  .00000106  00000-0  10000-3 0   665
2 27499   0.0928  32.8693 0008090 290.3889  92.5421  1.00271722  1476
RUBIN 2
1 27605U 02058A   03014.30504738  .00000929  00000-0  17010-3 0   299
2 27605  64.5534 304.3184 0030897 125.8465 234.5514 14.71370950  3622
